Location: Jarosław
(50.0191°N, 22.6835°E)
Time: 14:30:04
(UTC+02:00)

ISS - Pass Details

Date: 30 March 2019
Orbit: 408 x 410 km, 51.6° (Epoch: 25 April)

Event Time Altitude Azimuth Distance (km) Brightness Sun altitude
Rises 19:15:13 0° 277° (W) 2,338 1.7 -12.9°
Reaches altitude 10° 19:17:19 10° 281° (W) 1,476 0.4 -13.2°
Maximum altitude 19:20:36 64° 4° (N) 457 -3.5 -13.7°
Enters shadow 19:22:25 24° 80° (E) 903 -2.6 -13.9°
